• In Uzbekistan
  • List of Countries
  • For 7 days
  • Water Temperature
  • Satellite Maps
  • Weather Map
  • Weather Widgets
  • user-avatar
    Login

    Hourly Weather Kunming

    Today, 18 November, Sunday

    Time Temperature Precipitation Wind Pressure Humidity
    00:00 +9°C° 0 mm 1 mps 589 mmHg 84%
    01:00 +8°C° 0 mm 1 mps 589 mmHg 86%
    02:00 +8°C° 0 mm 1 mps 589 mmHg 87%
    03:00 +8°C° 0 mm 1 mps 589 mmHg 89%
    04:00 +7°C° 0 mm 1 mps 589 mmHg 90%
    05:00 +7°C° 0 mm 1 mps 589 mmHg 90%
    06:00 +7°C° 0 mm 1 mps 590 mmHg 91%
    07:00 +7°C° 0 mm 1 mps 590 mmHg 91%
    08:00 +9°C° 0 mm 2 mps 591 mmHg 77%
    09:00 +13°C° 0 mm 3 mps 593 mmHg 63%
    10:00 +17°C° 0 mm 3 mps 594 mmHg 48%
    11:00 +18°C° 0 mm 4 mps 594 mmHg 44%
    12:00 +19°C° 0 mm 4 mps 594 mmHg 40%
    13:00 +20°C° 0 mm 5 mps 593 mmHg 35%
    14:00 +19°C° 0 mm 4 mps 593 mmHg 37%
    15:00 +19°C° 0 mm 4 mps 592 mmHg 39%
    16:00 +19°C° 0 mm 3 mps 591 mmHg 41%
    17:00 +16°C° 0 mm 3 mps 591 mmHg 50%
    18:00 +14°C° 0 mm 2 mps 590 mmHg 58%
    19:00 +11°C° 0 mm 1 mps 590 mmHg 66%
    20:00 +11°C° 0 mm 1 mps 590 mmHg 70%
    21:00 +10°C° 0 mm 1 mps 590 mmHg 74%
    22:00 +10°C° 0 mm 1 mps 590 mmHg 78%
    23:00 +10°C° 0 mm 1 mps 590 mmHg 81%

    Tomorrow, 19 November, Monday

    Time Temperature Precipitation Wind Pressure Humidity
    00:00 +9°C° 0 mm 1 mps 590 mmHg 85%
    01:00 +9°C° 0 mm 1 mps 590 mmHg 88%
    02:00 +9°C° 0 mm 1 mps 590 mmHg 90%
    03:00 +9°C° 0 mm 1 mps 590 mmHg 91%
    04:00 +9°C° 0 mm 1 mps 589 mmHg 93%
    05:00 +9°C° 0 mm 1 mps 590 mmHg 94%
    06:00 +9°C° 0 mm 1 mps 590 mmHg 94%
    07:00 +9°C° 0 mm 1 mps 590 mmHg 95%
    08:00 +10°C° 0 mm 2 mps 592 mmHg 85%
    09:00 +13°C° 0 mm 3 mps 593 mmHg 74%
    10:00 +15°C° 0 mm 4 mps 594 mmHg 64%
    11:00 +18°C° 0 mm 4 mps 594 mmHg 57%
    12:00 +19°C° 0 mm 5 mps 593 mmHg 50%
    13:00 +20°C° 0 mm 5 mps 593 mmHg 43%
    14:00 +20°C° 0 mm 5 mps 593 mmHg 44%
    15:00 +19°C° 0 mm 5 mps 592 mmHg 44%
    16:00 +19°C° 0 mm 4 mps 591 mmHg 44%
    17:00 +17°C° 0 mm 3 mps 591 mmHg 53%
    18:00 +13°C° 0 mm 3 mps 591 mmHg 63%
    19:00 +12°C° 0 mm 2 mps 590 mmHg 72%
    20:00 +10°C° 0 mm 2 mps 590 mmHg 76%
    21:00 +11°C° 0 mm 1 mps 590 mmHg 80%
    22:00 +10°C° 0 mm 1 mps 590 mmHg 85%
    23:00 +10°C° 0 mm 1 mps 590 mmHg 87%

    Day after tomorrow, 20 November, Tuesday

    Time Temperature Precipitation Wind Pressure Humidity
    00:00 +10°C° 0 mm 1 mps 590 mmHg 89%
    01:00 +9°C° 0 mm 1 mps 590 mmHg 91%
    02:00 +9°C° 0 mm 1 mps 589 mmHg 92%
    03:00 +9°C° 0 mm 1 mps 589 mmHg 93%
    04:00 +8°C° 0 mm 1 mps 589 mmHg 94%
    05:00 +9°C° 0 mm 1 mps 589 mmHg 95%
    06:00 +9°C° 0 mm 1 mps 589 mmHg 95%
    07:00 +9°C° 0 mm 1 mps 590 mmHg 96%
    08:00 +10°C° 0 mm 2 mps 591 mmHg 88%
    09:00 +13°C° 0 mm 2 mps 592 mmHg 80%
    10:00 +14°C° 0 mm 3 mps 593 mmHg 72%
    11:00 +15°C° 0 mm 4 mps 593 mmHg 63%
    12:00 +17°C° 0 mm 5 mps 592 mmHg 54%
    13:00 +19°C° 0 mm 5 mps 592 mmHg 45%
    14:00 +19°C° 0 mm 5 mps 592 mmHg 44%
    15:00 +19°C° 0 mm 5 mps 591 mmHg 44%
    16:00 +19°C° 0 mm 5 mps 591 mmHg 43%
    17:00 +15°C° 0 mm 4 mps 590 mmHg 52%
    18:00 +13°C° 0 mm 3 mps 590 mmHg 61%
    19:00 +12°C° 0 mm 2 mps 590 mmHg 69%
    20:00 +10°C° 0 mm 2 mps 590 mmHg 73%
    21:00 +10°C° 0 mm 2 mps 590 mmHg 76%
    22:00 +10°C° 0 mm 1 mps 590 mmHg 79%
    23:00 +9°C° 0 mm 1 mps 590 mmHg 81%

    21 November, Wednesday

    Time Temperature Precipitation Wind Pressure Humidity
    00:00 +9°C° 0 mm 1 mps 590 mmHg 83%
    01:00 +9°C° 0 mm 1 mps 590 mmHg 86%
    02:00 +8°C° 0 mm 1 mps 589 mmHg 87%
    03:00 +8°C° 0 mm 1 mps 589 mmHg 88%
    04:00 +7°C° 0 mm 0 mps 589 mmHg 89%
    05:00 +7°C° 0 mm 0 mps 590 mmHg 90%
    06:00 +7°C° 0 mm 0 mps 590 mmHg 90%
    07:00 +7°C° 0 mm 0 mps 591 mmHg 90%
    08:00 +11°C° 0 mm 1 mps 592 mmHg 79%
    09:00 +14°C° 0 mm 1 mps 594 mmHg 68%
    10:00 +18°C° 0 mm 1 mps 596 mmHg 56%
    11:00 +18°C° 0 mm 2 mps 595 mmHg 50%
    12:00 +19°C° 0 mm 2 mps 595 mmHg 44%
    13:00 +20°C° 0 mm 3 mps 594 mmHg 38%
    14:00 +20°C° 0 mm 3 mps 594 mmHg 40%
    15:00 +19°C° 0 mm 3 mps 593 mmHg 41%
    16:00 +19°C° 0 mm 3 mps 593 mmHg 43%
    17:00 +17°C° 0 mm 2 mps 592 mmHg 51%
    18:00 +14°C° 0 mm 1 mps 592 mmHg 60%
    19:00 +12°C° 0 mm 1 mps 591 mmHg 68%
    20:00 +11°C° 0 mm 1 mps 592 mmHg 71%
    21:00 +11°C° 0 mm 1 mps 592 mmHg 75%
    22:00 +10°C° 0 mm 1 mps 592 mmHg 78%
    23:00 +10°C° 0 mm 1 mps 592 mmHg 81%

    22 November, Thursday

    Time Temperature Precipitation Wind Pressure Humidity
    00:00 +9°C° 0 mm 1 mps 592 mmHg 84%
    01:00 +9°C° 0 mm 1 mps 591 mmHg 88%
    02:00 +9°C° 0 mm 1 mps 591 mmHg 90%
    03:00 +9°C° 0 mm 1 mps 591 mmHg 91%
    04:00 +8°C° 0 mm 1 mps 591 mmHg 93%
    05:00 +9°C° 0 mm 1 mps 592 mmHg 93%
    06:00 +9°C° 0 mm 1 mps 592 mmHg 93%
    07:00 +9°C° 0 mm 1 mps 593 mmHg 93%
    08:00 +11°C° 0.1 mm 1 mps 594 mmHg 85%
    09:00 +13°C° 0.1 mm 2 mps 595 mmHg 76%
    10:00 +16°C° 0.1 mm 2 mps 596 mmHg 67%
    11:00 +17°C° 0.1 mm 3 mps 595 mmHg 60%
    12:00 +18°C° 0.1 mm 4 mps 595 mmHg 54%
    13:00 +19°C° 0.1 mm 4 mps 594 mmHg 47%
    14:00 +19°C° 0 mm 4 mps 594 mmHg 47%
    15:00 +18°C° 0 mm 4 mps 593 mmHg 48%
    16:00 +18°C° 0 mm 4 mps 593 mmHg 48%
    17:00 +16°C° 0 mm 3 mps 592 mmHg 57%
    18:00 +14°C° 0 mm 2 mps 592 mmHg 66%
    19:00 +12°C° 0 mm 1 mps 592 mmHg 75%
    20:00 +11°C° 0 mm 1 mps 592 mmHg 79%
    21:00 +10°C° 0 mm 1 mps 592 mmHg 83%
    22:00 +10°C° 0 mm 1 mps 592 mmHg 87%
    23:00 +9°C° 0 mm 1 mps 592 mmHg 88%

    23 November, Friday

    Time Temperature Precipitation Wind Pressure Humidity
    00:00 +9°C° 0 mm 1 mps 591 mmHg 90%
    01:00 +8°C° 0 mm 0 mps 591 mmHg 91%
    02:00 +7°C° 0 mm 0 mps 591 mmHg 92%
    03:00 +7°C° 0 mm 0 mps 591 mmHg 93%
    04:00 +7°C° 0 mm 0 mps 591 mmHg 93%
    05:00 +7°C° 0 mm 0 mps 591 mmHg 94%
    06:00 +7°C° 0 mm 0 mps 591 mmHg 94%
    07:00 +8°C° 0 mm 1 mps 592 mmHg 94%
    08:00 +10°C° 0 mm 1 mps 593 mmHg 87%
    09:00 +12°C° 0 mm 2 mps 594 mmHg 79%
    10:00 +14°C° 0 mm 2 mps 594 mmHg 72%
    11:00 +16°C° 0 mm 3 mps 594 mmHg 64%
    12:00 +17°C° 0 mm 3 mps 594 mmHg 56%
    13:00 +18°C° 0 mm 3 mps 593 mmHg 47%
    14:00 +18°C° 0 mm 3 mps 593 mmHg 48%
    15:00 +18°C° 0 mm 3 mps 592 mmHg 48%
    16:00 +18°C° 0 mm 3 mps 592 mmHg 49%
    17:00 +16°C° 0 mm 3 mps 591 mmHg 58%
    18:00 +13°C° 0 mm 2 mps 591 mmHg 67%
    19:00 +10°C° 0 mm 2 mps 590 mmHg 77%
    20:00 +10°C° 0 mm 1 mps 590 mmHg 80%
    21:00 +10°C° 0 mm 1 mps 590 mmHg 83%
    22:00 +9°C° 0 mm 1 mps 590 mmHg 86%
    23:00 +9°C° 0 mm 1 mps 589 mmHg 87%
    Show more